Inquirer Daily News

Weather

Get conditions and forecasts for any City, State, ZIP code or Country:  
Trenton, NJ
on Sunday, December 2, 2012

Sunday
Previous Day Next Day
Daily Summary
 ActualAverageRecord
Temperature
Mean Temperature °F 40°F  
Max Temperature 50°F 48°F 65°F (1980)
Min Temperature 38°F 32°F 14°F (1946)
Degree Days
Heating Degree Days 21 25  
Month to date heating degree days 44 50  
Since 1 July heating degree days 1051 1026  
Cooling Degree Days 0 0  
Month to date cooling degree days 0 0  
Year to date cooling degree days 1234 965  
Moisture
Dew Point 42°F   
Average Humidity 90    
Maximum Humidity 100    
Minimum Humidity 80    
Precipitation
Precipitation 0.07 in 0.15 in 2.10 in (1986)
Month to date precipitation 0.07 0.30  
Year to date precipitation 33.30 43.04  
Wind
Wind Speed 2 mph   
Max Wind Speed 7 mph   
Max Gust Speed 15 mph   
Visibility 3 miles   
Events Fog , Rain   

Key: T is trace of precipitation, MM is missing value
Source: NWS Daily Summary
Time(EST)TemperatureDew PointHumidity Pressure Visibility Wind DirectionWind SpeedGust SpeedPrecipitationEvents Conditions
12:53 AM 39.0°F 37.9°F 96% 30.39 in 0.5 miles NNE 3.5 mph - N/A Fog Fog
1:53 AM 39.0°F 37.9°F 96% 30.39 in 0.5 miles Calm Calm - N/A Fog Fog
2:53 AM 39.0°F 39.0°F 100% 30.37 in 0.2 miles Calm Calm - N/A Fog Fog
3:53 AM 39.0°F 37.9°F 96% 30.36 in 0.2 miles Calm Calm - N/A Fog Fog
4:53 AM 37.9°F 37.9°F 100% 30.37 in 0.2 miles Calm Calm - N/A Fog Fog
5:53 AM 37.9°F 37.9°F 100% 30.38 in 0.2 miles Calm Calm - N/A Fog Fog
6:53 AM 37.9°F 37.0°F 97% 30.37 in 0.2 miles Calm Calm - N/A Fog Fog
7:53 AM 37.9°F 37.9°F 100% 30.35 in 0.2 miles SSW 3.5 mph - N/A Fog Fog
8:53 AM 39.0°F 39.0°F 100% 30.33 in 0.2 miles SSW 3.5 mph - N/A Fog Fog
9:53 AM 39.9°F 39.9°F 100% 30.34 in 0.2 miles Calm Calm - N/A Fog Fog
10:53 AM 41.0°F 41.0°F 100% 30.31 in 0.2 miles Calm Calm - N/A Fog Fog
11:53 AM 42.1°F 41.0°F 96% 30.27 in 0.5 miles SSW 4.6 mph - N/A Fog Fog
12:09 PM 42.8°F 42.8°F 100% 30.26 in 1.2 miles SSW 6.9 mph - N/A   Overcast
12:22 PM 42.8°F 42.8°F 100% 30.25 in 2.5 miles SSW 5.8 mph - N/A   Overcast
12:48 PM 44.6°F 42.8°F 93% 30.24 in 3.0 miles South 5.8 mph - N/A   Overcast
12:53 PM 44.1°F 42.1°F 93% 30.23 in 3.0 miles SSW 5.8 mph - N/A   Overcast
1:12 PM 44.6°F 42.8°F 93% 30.22 in 4.0 miles South 3.5 mph - N/A   Overcast
1:39 PM 48.2°F 42.8°F 82% 30.21 in 6.0 miles SSW 5.8 mph - N/A   Haze
1:46 PM 46.4°F 42.8°F 87% 30.21 in 6.0 miles SSW 3.5 mph - N/A   Partly Cloudy
1:53 PM 48.0°F 43.0°F 83% 30.20 in 6.0 miles SSW 3.5 mph - N/A   Haze
2:53 PM 48.9°F 43.0°F 80% 30.17 in 7.0 miles SSW 3.5 mph - N/A   Clear
3:53 PM 48.9°F 43.0°F 80% 30.14 in 8.0 miles South 3.5 mph - N/A   Clear
4:53 PM 48.0°F 43.0°F 83% 30.13 in 8.0 miles North 3.5 mph - N/A   Clear
5:53 PM 46.9°F 42.1°F 83% 30.13 in 8.0 miles Calm Calm - N/A   Clear
6:53 PM 46.9°F 43.0°F 86% 30.13 in 7.0 miles Calm Calm - N/A   Overcast
7:53 PM 48.9°F 44.1°F 83% 30.14 in 8.0 miles WNW 3.5 mph - 0.00 in   Overcast
8:53 PM 48.0°F 46.0°F 93% 30.14 in 3.0 miles Calm Calm - 0.06 in Rain Light Rain
9:53 PM 48.0°F 46.0°F 93% 30.12 in 3.0 miles Calm Calm - 0.00 in   Overcast
10:07 PM 48.2°F 46.4°F 93% 30.13 in 2.5 miles Calm Calm - 0.00 in Rain Light Rain
10:19 PM 48.2°F 46.4°F 93% 30.14 in 3.0 miles Calm Calm - 0.01 in Rain Light Rain
10:53 PM 48.9°F 46.9°F 93% 30.12 in 4.0 miles WSW 3.5 mph - 0.01 in   Overcast
11:53 PM 50.0°F 46.9°F 89% 30.12 in 3.0 miles Calm Calm - N/A   Overcast
Astronomy
Sunrise:07:04 AM (EST) Moon Rise:08:18 PM (EST)12/2
Sunset:04:33 PM (EST) Moon Set:09:52 AM (EST)12/2
Moon Phase
Dec. 02 Dec. 06 Dec. 13 Dec. 20 Dec. 28

Copyright © 2014 The Weather Underground, Inc.